When you browse on this site, cookies collect data to enhance your experience and personalize the content and advertising you see.
Visit our Privacy Policy to learn more. By continuing to use the site, you agree to this use of cookies and data.
  • In Austria
  • List of Countries
  • For 7 days
  • Water Temperature
  • Weather Map
  • News
  • Weather Widgets
  • user-avatar
    Login

    Hourly Weather Mendoza

    Today, 15 December, Sunday

    Time Temperature Precipitation Wind Pressure Humidity
    00:00 +24°C° 0.1 mm 3 mps 698 mmHg 41%
    01:00 +22°C° 0.1 mm 4 mps 698 mmHg 43%
    02:00 +21°C° 0 mm 4 mps 698 mmHg 46%
    03:00 +21°C° 0 mm 4 mps 698 mmHg 49%
    04:00 +20°C° 0 mm 4 mps 698 mmHg 52%
    05:00 +21°C° 0 mm 3 mps 698 mmHg 49%
    06:00 +22°C° 0 mm 3 mps 699 mmHg 45%
    07:00 +24°C° 0 mm 3 mps 699 mmHg 41%
    08:00 +25°C° 0 mm 3 mps 699 mmHg 38%
    09:00 +26°C° 0 mm 3 mps 699 mmHg 35%
    10:00 +27°C° 0 mm 4 mps 699 mmHg 32%
    11:00 +28°C° 0 mm 4 mps 698 mmHg 30%
    12:00 +29°C° 0 mm 4 mps 698 mmHg 27%
    13:00 +30°C° 0 mm 4 mps 697 mmHg 25%
    14:00 +30°C° 0 mm 4 mps 697 mmHg 24%
    15:00 +30°C° 0 mm 4 mps 696 mmHg 23%
    16:00 +30°C° 0 mm 4 mps 696 mmHg 22%
    17:00 +29°C° 0.1 mm 3 mps 696 mmHg 24%
    18:00 +28°C° 0.1 mm 2 mps 697 mmHg 25%
    19:00 +27°C° 0.1 mm 2 mps 697 mmHg 26%
    20:00 +26°C° 0.1 mm 3 mps 697 mmHg 29%
    21:00 +25°C° 0.1 mm 4 mps 698 mmHg 33%
    22:00 +23°C° 0.1 mm 6 mps 698 mmHg 36%
    23:00 +22°C° 0 mm 5 mps 698 mmHg 38%

    Tomorrow, 16 December, Monday

    Time Temperature Precipitation Wind Pressure Humidity
    00:00 +22°C° 0 mm 4 mps 698 mmHg 41%
    01:00 +21°C° 0 mm 3 mps 697 mmHg 44%
    02:00 +20°C° 0 mm 2 mps 697 mmHg 46%
    03:00 +20°C° 0 mm 2 mps 697 mmHg 49%
    04:00 +20°C° 0 mm 1 mps 697 mmHg 51%
    05:00 +21°C° 0 mm 1 mps 698 mmHg 46%
    06:00 +21°C° 0 mm 2 mps 698 mmHg 41%
    07:00 +24°C° 0 mm 2 mps 699 mmHg 36%
    08:00 +25°C° 0 mm 2 mps 699 mmHg 33%
    09:00 +26°C° 0 mm 3 mps 699 mmHg 30%
    10:00 +27°C° 0 mm 4 mps 699 mmHg 28%
    11:00 +28°C° 0 mm 4 mps 698 mmHg 26%
    12:00 +29°C° 0 mm 4 mps 698 mmHg 24%
    13:00 +30°C° 0 mm 4 mps 697 mmHg 22%
    14:00 +30°C° 0 mm 4 mps 697 mmHg 21%
    15:00 +32°C° 0 mm 5 mps 696 mmHg 20%
    16:00 +32°C° 0 mm 5 mps 696 mmHg 19%
    17:00 +30°C° 0 mm 5 mps 696 mmHg 22%
    18:00 +29°C° 0 mm 5 mps 696 mmHg 25%
    19:00 +27°C° 0 mm 5 mps 697 mmHg 27%
    20:00 +27°C° 0 mm 5 mps 697 mmHg 30%
    21:00 +26°C° 0 mm 4 mps 697 mmHg 32%
    22:00 +26°C° 0 mm 3 mps 697 mmHg 35%
    23:00 +25°C° 0 mm 3 mps 697 mmHg 36%

    Day after tomorrow, 17 December, Tuesday

    Time Temperature Precipitation Wind Pressure Humidity
    00:00 +25°C° 0 mm 3 mps 697 mmHg 38%
    01:00 +24°C° 0 mm 3 mps 697 mmHg 39%
    02:00 +24°C° 0 mm 3 mps 696 mmHg 41%
    03:00 +22°C° 0 mm 3 mps 696 mmHg 43%
    04:00 +22°C° 0 mm 3 mps 696 mmHg 46%
    05:00 +23°C° 0 mm 4 mps 696 mmHg 42%
    06:00 +25°C° 0 mm 5 mps 697 mmHg 38%
    07:00 +27°C° 0 mm 6 mps 697 mmHg 34%
    08:00 +29°C° 0 mm 7 mps 697 mmHg 30%
    09:00 +31°C° 0 mm 8 mps 697 mmHg 26%
    10:00 +33°C° 0 mm 9 mps 697 mmHg 21%
    11:00 +34°C° 0 mm 9 mps 696 mmHg 19%
    12:00 +35°C° 0 mm 9 mps 696 mmHg 17%
    13:00 +37°C° 0 mm 9 mps 695 mmHg 14%
    14:00 +37°C° 0 mm 8 mps 695 mmHg 13%
    15:00 +37°C° 0 mm 8 mps 694 mmHg 13%
    16:00 +37°C° 0 mm 8 mps 694 mmHg 12%
    17:00 +34°C° 0 mm 7 mps 694 mmHg 13%
    18:00 +33°C° 0 mm 7 mps 694 mmHg 14%
    19:00 +30°C° 0 mm 6 mps 695 mmHg 15%
    20:00 +29°C° 0 mm 5 mps 695 mmHg 18%
    21:00 +28°C° 0 mm 4 mps 695 mmHg 20%
    22:00 +27°C° 0 mm 3 mps 695 mmHg 23%
    23:00 +26°C° 0 mm 2 mps 695 mmHg 25%

    18 December, Wednesday

    Time Temperature Precipitation Wind Pressure Humidity
    00:00 +25°C° 0 mm 2 mps 695 mmHg 28%
    01:00 +24°C° 0 mm 1 mps 694 mmHg 30%
    02:00 +23°C° 0 mm 1 mps 694 mmHg 31%
    03:00 +23°C° 0 mm 1 mps 694 mmHg 32%
    04:00 +22°C° 0 mm 1 mps 694 mmHg 32%
    05:00 +24°C° 0 mm 1 mps 695 mmHg 29%
    06:00 +26°C° 0 mm 2 mps 695 mmHg 25%
    07:00 +28°C° 0 mm 2 mps 696 mmHg 22%
    08:00 +30°C° 0 mm 2 mps 696 mmHg 20%
    09:00 +31°C° 0 mm 2 mps 696 mmHg 19%
    10:00 +34°C° 0 mm 2 mps 696 mmHg 17%
    11:00 +35°C° 0 mm 2 mps 695 mmHg 16%
    12:00 +36°C° 0 mm 3 mps 695 mmHg 15%
    13:00 +37°C° 0 mm 3 mps 694 mmHg 13%
    14:00 +37°C° 0 mm 4 mps 694 mmHg 13%
    15:00 +38°C° 0 mm 4 mps 694 mmHg 13%
    16:00 +38°C° 0 mm 4 mps 693 mmHg 12%
    17:00 +36°C° 0 mm 4 mps 694 mmHg 15%
    18:00 +35°C° 0 mm 4 mps 694 mmHg 18%
    19:00 +33°C° 0 mm 4 mps 694 mmHg 21%
    20:00 +32°C° 0 mm 4 mps 694 mmHg 25%
    21:00 +30°C° 0 mm 3 mps 695 mmHg 30%
    22:00 +29°C° 0 mm 3 mps 695 mmHg 34%
    23:00 +28°C° 0 mm 3 mps 694 mmHg 36%

    19 December, Thursday

    Time Temperature Precipitation Wind Pressure Humidity
    00:00 +27°C° 0 mm 2 mps 694 mmHg 39%
    01:00 +27°C° 0 mm 2 mps 694 mmHg 41%
    02:00 +26°C° 0 mm 2 mps 694 mmHg 41%
    03:00 +26°C° 0 mm 3 mps 694 mmHg 42%
    04:00 +26°C° 0 mm 3 mps 694 mmHg 42%
    05:00 +27°C° 0 mm 4 mps 694 mmHg 40%
    06:00 +27°C° 0 mm 5 mps 695 mmHg 39%
    07:00 +28°C° 0 mm 6 mps 695 mmHg 37%
    08:00 +30°C° 0 mm 6 mps 695 mmHg 33%
    09:00 +32°C° 0 mm 6 mps 695 mmHg 30%
    10:00 +33°C° 0 mm 5 mps 695 mmHg 26%
    11:00 +34°C° 0 mm 5 mps 695 mmHg 24%
    12:00 +35°C° 0 mm 4 mps 694 mmHg 23%
    13:00 +36°C° 0 mm 3 mps 694 mmHg 21%
    14:00 +36°C° 0 mm 3 mps 694 mmHg 20%
    15:00 +37°C° 0 mm 3 mps 694 mmHg 19%
    16:00 +37°C° 0 mm 3 mps 693 mmHg 18%
    17:00 +36°C° 0 mm 3 mps 694 mmHg 19%
    18:00 +35°C° 0 mm 3 mps 694 mmHg 21%
    19:00 +33°C° 0 mm 3 mps 694 mmHg 23%
    20:00 +32°C° 0.1 mm 4 mps 694 mmHg 25%
    21:00 +30°C° 0.1 mm 5 mps 695 mmHg 27%
    22:00 +29°C° 0.1 mm 7 mps 696 mmHg 29%
    23:00 +27°C° 0 mm 7 mps 696 mmHg 35%

    20 December, Friday

    Time Temperature Precipitation Wind Pressure Humidity
    00:00 +24°C° 0 mm 7 mps 696 mmHg 41%
    01:00 +22°C° 0 mm 7 mps 696 mmHg 48%
    02:00 +22°C° 0 mm 6 mps 696 mmHg 49%
    03:00 +21°C° 0 mm 5 mps 697 mmHg 50%
    04:00 +20°C° 0 mm 4 mps 697 mmHg 52%
    05:00 +21°C° 0 mm 4 mps 697 mmHg 48%
    06:00 +21°C° 0 mm 4 mps 697 mmHg 44%
    07:00 +22°C° 0 mm 4 mps 697 mmHg 40%
    08:00 +23°C° 0 mm 4 mps 697 mmHg 36%
    09:00 +25°C° 0 mm 4 mps 697 mmHg 33%
    10:00 +26°C° 0 mm 4 mps 697 mmHg 30%
    11:00 +27°C° 0 mm 4 mps 697 mmHg 28%
    12:00 +28°C° 0 mm 4 mps 696 mmHg 26%
    13:00 +29°C° 0 mm 4 mps 696 mmHg 24%
    14:00 +30°C° 0 mm 4 mps 696 mmHg 23%
    15:00 +30°C° 0 mm 4 mps 695 mmHg 22%
    16:00 +32°C° 0 mm 5 mps 695 mmHg 21%
    17:00 +30°C° 0 mm 5 mps 696 mmHg 24%
    18:00 +28°C° 0 mm 5 mps 696 mmHg 26%
    19:00 +27°C° 0 mm 5 mps 696 mmHg 29%
    20:00 +26°C° 0 mm 4 mps 696 mmHg 32%
    21:00 +25°C° 0 mm 4 mps 697 mmHg 35%
    22:00 +25°C° 0 mm 3 mps 697 mmHg 37%
    23:00 +24°C° 0 mm 3 mps 697 mmHg 37%
    Show more